map of FEZ home
Great Circle Mapper logo
FEZ - Airport
Location
City:  Fez, Morocco
Near (Alt.):Fes
Name:Sass
ICAO / IATA:GMFF / FEZ

Details
Type:Airport (Aerodrome, Airfield)
Use:Public/Civil, International (customs port of entry)
Latitude:3355'38"N (33.927261)
Longitude:458'41"W (-4.977957)
Datum:WGS 1984
Elevation:1900 ft (579 m)
Variation:1.4W (WMM2010 magnetic declination)
Runways:1
Longest:10499 × 148 ft (3200 × 45 m), paved

Time
Time Zone:UTC+0 (DST+1)
Local Time:

Weather
METAR:GMFF 262200Z 20006KT 9999 SCT030 12/05 Q1011 NOSIG
TAF:GMFF 261100Z 2612/2718 32010KT 9999 SCT030SCT100
BECMG 2622/2702 20008KT
BECMG 2708/2612 32008KT
BECMG 2714/2718 SCT020 BKN030 FEW033C B
TEMPO RA

Related Locations
Nearby:
Farthest:KKE: 12322 mi / 19830 km
Kerikeri/Bay of Islands, NZ

Find:

   beyond  
but within

Other Information
Maps:
NOTAMs:
Links:
Sources:

  
flag of Morocco   

Sectional Chart

Flight Planning
at skyvector.com

Satellite Image

Google Maps Satellite View

 

Copyright © 2004-2014 Karl L. Swartz. All rights reserved.
The Great Circle Mapper name and logo are trademarks of the Great Circle Mapper.
All other trademarks mentioned herein belong to their respective owners.
Please see credits for attibutions and further copyright information.

  Follow gcmap on Facebook Follow gcmap on Twitter

hCard Microformat

Geo Microformat